| time (UTC) | temp F | wind direction | speed knots | gust knots | rain 1hr in | rain 24hr in | rain mn in | humidity % | barometer mb |
| 20260510104458 | 62 | 177 | 2.6 | 2.6 | 0.00 | 0.00 | 0.00 | 89 | 1007.9 |
| 20260510103958 | 62 | 172 | 2.6 | 2.6 | 0.00 | 0.00 | 0.00 | 89 | 1007.9 |
| 20260510103458 | 62 | 201 | 2.6 | 2.6 | 0.00 | 0.00 | 0.00 | 88 | 1007.9 |
| 20260510102958 | 62 | 208 | 1.7 | 2.6 | 0.00 | 0.00 | 0.00 | 88 | 1008.0 |
| 20260510102458 | 62 | 207 | 2.6 | 2.6 | 0.00 | 0.00 | 0.00 | 88 | 1008.0 |
| 20260510101958 | 62 | 195 | 1.7 | 1.7 | 0.00 | 0.00 | 0.00 | 88 | 1007.8 |
| 20260510101458 | 62 | 225 | 1.7 | 1.7 | 0.00 | 0.00 | 0.00 | 88 | 1007.8 |
| 20260510100958 | 63 | 222 | 1.7 | 2.6 | 0.00 | 0.00 | 0.00 | 88 | 1007.7 |
| 20260510100458 | 63 | 148 | 0.9 | 2.6 | 0.00 | 0.00 | 0.00 | 88 | 1007.5 |
| 20260510095958 | 62 | 112 | 1.7 | 1.7 | 0.00 | 0.00 | 0.00 | 87 | 1007.6 |
| 20260510095458 | 63 | 18 | 0.9 | 2.6 | 0.00 | 0.00 | 0.00 | 88 | 1007.7 |
| 20260510094958 | 63 | 358 | 0.9 | 2.6 | 0.00 | 0.00 | 0.00 | 88 | 1007.6 |
| 20260510094458 | 63 | 351 | 1.7 | 2.6 | 0.00 | 0.00 | 0.00 | 88 | 1007.4 |
| 20260510093958 | 63 | 326 | 2.6 | 3.5 | 0.00 | 0.00 | 0.00 | 88 | 1007.4 |
| 20260510093458 | 63 | 334 | 2.6 | 3.5 | 0.00 | 0.00 | 0.00 | 88 | 1007.4 |
| 20260510092958 | 63 | 338 | 2.6 | 2.6 | 0.00 | 0.00 | 0.00 | 88 | 1007.2 |
| 20260510092458 | 62 | 295 | 0.9 | 1.7 | 0.00 | 0.00 | 0.00 | 88 | 1007.1 |
| 20260510091958 | 62 | 344 | 0.9 | 1.7 | 0.00 | 0.00 | 0.00 | 87 | 1006.9 |
| 20260510091458 | 62 | 340 | 1.7 | 1.7 | 0.00 | 0.00 | 0.00 | 87 | 1006.9 |
| 20260510090958 | 62 | 18 | 1.7 | 2.6 | 0.00 | 0.00 | 0.00 | 87 | 1006.8 |
| 20260510090459 | 63 | 33 | 1.7 | 2.6 | 0.00 | 0.00 | 0.00 | 87 | 1006.7 |
| 20260510085959 | 63 | 1 | 0.9 | 2.6 | 0.00 | 0.00 | 0.00 | 87 | 1006.6 |
| 20260510085458 | 62 | 340 | 2.6 | 2.6 | 0.00 | 0.00 | 0.00 | 86 | 1006.5 |
| 20260510084958 | 62 | 346 | 2.6 | 2.6 | 0.00 | 0.00 | 0.00 | 86 | 1006.4 |
| 20260510084458 | 63 | 53 | 0.0 | 1.7 | 0.00 | 0.00 | 0.00 | 87 | 1006.3 |
| 20260510083958 | 63 | 325 | 0.9 | 1.7 | 0.00 | 0.00 | 0.00 | 87 | 1006.4 |
| 20260510083458 | 63 | 359 | 0.9 | 0.9 | 0.00 | 0.00 | 0.00 | 87 | 1006.3 |
| 20260510082958 | 62 | 15 | 0.9 | 0.9 | 0.00 | 0.00 | 0.00 | 86 | 1006.2 |
| 20260510082458 | 62 | 57 | 0.9 | 1.7 | 0.00 | 0.00 | 0.00 | 86 | 1006.3 |
| 20260510081958 | 62 | 126 | 0.9 | 1.7 | 0.00 | 0.00 | 0.00 | 86 | 1006.1 |
| 20260510081458 | 62 | 98 | 0.9 | 1.7 | 0.00 | 0.00 | 0.00 | 85 | 1006.0 |
| 20260510080958 | 62 | 271 | 0.9 | 2.6 | 0.00 | 0.00 | 0.00 | 85 | 1006.1 |
| 20260510080458 | 63 | 230 | 1.7 | 2.6 | 0.00 | 0.00 | 0.00 | 85 | 1006.0 |
| 20260510075959 | 63 | 207 | 2.6 | 2.6 | 0.00 | 0.00 | 0.00 | 85 | 1006.1 |
| 20260510075458 | 64 | 195 | 1.7 | 1.7 | 0.00 | 0.00 | 0.00 | 85 | 1005.8 |
| 20260510074958 | 64 | 178 | 0.9 | 0.9 | 0.00 | 0.00 | 0.00 | 84 | 1005.6 |
| 20260510074458 | 64 | 215 | 0.9 | 0.9 | 0.00 | 0.00 | 0.00 | 84 | 1005.9 |
| 20260510073958 | 64 | 161 | 0.9 | 0.9 | 0.00 | 0.00 | 0.00 | 84 | 1005.7 |
| 20260510073458 | 63 | 202 | 0.9 | 0.9 | 0.00 | 0.00 | 0.00 | 83 | 1006.0 |
| 20260510072959 | 63 | 217 | 0.9 | 1.7 | 0.00 | 0.00 | 0.00 | 83 | 1006.0 |
| 20260510072458 | 63 | 190 | 0.9 | 1.7 | 0.00 | 0.00 | 0.00 | 83 | 1006.0 |
| 20260510071958 | 64 | 167 | 1.7 | 1.7 | 0.00 | 0.00 | 0.00 | 83 | 1006.0 |
| 20260510071458 | 64 | 143 | 1.7 | 1.7 | 0.00 | 0.00 | 0.00 | 83 | 1006.0 |
| 20260510070958 | 65 | 160 | 1.7 | 1.7 | 0.00 | 0.00 | 0.00 | 82 | 1006.1 |
| 20260510070458 | 65 | 184 | 0.9 | 1.7 | 0.00 | 0.00 | 0.00 | 79 | 1006.1 |
| 20260510065958 | 65 | 272 | 1.7 | 1.7 | 0.00 | 0.00 | 0.00 | 79 | 1006.3 |
| 20260510065458 | 65 | 274 | 1.7 | 1.7 | 0.00 | 0.00 | 0.00 | 81 | 1006.2 |
| 20260510064958 | 65 | 317 | 0.9 | 0.9 | 0.00 | 0.00 | 0.00 | 81 | 1006.1 |
| 20260510064458 | 65 | 345 | 0.9 | 0.9 | 0.00 | 0.00 | 0.00 | 80 | 1006.3 |
| 20260510063958 | 64 | 87 | 0.0 | 0.9 | 0.00 | 0.00 | 0.00 | 78 | 1006.1 |
| 20260510063458 | 66 | 138 | 0.9 | 1.7 | 0.00 | 0.00 | 0.00 | 78 | 1006.2 |
| 20260510062959 | 66 | 75 | 0.9 | 1.7 | 0.00 | 0.00 | 0.00 | 78 | 1006.2 |
| 20260510062458 | 65 | 59 | 0.9 | 1.7 | 0.00 | 0.00 | 0.00 | 78 | 1006.3 |
| 20260510061958 | 66 | 103 | 0.9 | 0.9 | 0.00 | 0.00 | 0.00 | 78 | 1006.1 |
| 20260510061458 | 65 | 156 | 0.9 | 0.9 | 0.00 | 0.00 | 0.00 | 78 | 1006.1 |
| 20260510060959 | 66 | 189 | 0.9 | 1.7 | 0.00 | 0.00 | 0.00 | 77 | 1005.9 |
| 20260510060458 | 66 | 249 | 0.9 | 1.7 | 0.00 | 0.00 | 0.00 | 78 | 1006.2 |
| 20260510055958 | 66 | 233 | 1.7 | 1.7 | 0.00 | 0.00 | 0.00 | 79 | 1005.9 |
| 20260510055458 | 65 | 219 | 0.9 | 2.6 | 0.00 | 0.00 | 0.00 | 80 | 1005.9 |
| 20260510054959 | 65 | 185 | 1.7 | 2.6 | 0.00 | 0.00 | 0.00 | 79 | 1005.8 |
| 20260510054459 | 66 | 207 | 1.7 | 2.6 | 0.00 | 0.00 | 0.00 | 78 | 1005.6 |
| 20260510053958 | 66 | 173 | 1.7 | 2.6 | 0.00 | 0.00 | 0.00 | 77 | 1005.6 |
| 20260510053458 | 66 | 161 | 1.7 | 2.6 | 0.00 | 0.00 | 0.00 | 77 | 1005.7 |
| 20260510052959 | 66 | 143 | 2.6 | 2.6 | 0.00 | 0.00 | 0.00 | 78 | 1005.8 |
| 20260510052458 | 67 | 173 | 1.7 | 1.7 | 0.00 | 0.00 | 0.00 | 78 | 1005.8 |
| 20260510051958 | 67 | 215 | 1.7 | 2.6 | 0.00 | 0.00 | 0.00 | 78 | 1005.8 |
| 20260510051458 | 66 | 222 | 1.7 | 2.6 | 0.00 | 0.00 | 0.00 | 76 | 1005.6 |
| 20260510050959 | 67 | 213 | 2.6 | 2.6 | 0.00 | 0.00 | 0.00 | 77 | 1005.8 |
| 20260510050458 | 66 | 243 | 0.9 | 2.6 | 0.00 | 0.00 | 0.00 | 77 | 1005.7 |
| 20260510045958 | 66 | 193 | 0.9 | 2.6 | 0.00 | 0.00 | 0.00 | 75 | 1005.6 |
| 20260510045458 | 67 | 180 | 1.7 | 3.5 | 0.00 | 0.00 | 0.00 | 76 | 1005.7 |
| 20260510044959 | 67 | 174 | 2.6 | 3.5 | 0.00 | 0.00 | 0.00 | 77 | 1005.7 |
| 20260510044458 | 67 | 177 | 3.5 | 3.5 | 0.00 | 0.00 | 0.00 | 76 | 1005.7 |
| 20260510043958 | 67 | 179 | 0.9 | 2.6 | 0.00 | 0.00 | 0.00 | 77 | 1005.8 |
| 20260510043458 | 67 | 171 | 1.7 | 2.6 | 0.00 | 0.00 | 0.00 | 78 | 1005.7 |
| 20260510042959 | 67 | 194 | 1.7 | 2.6 | 0.00 | 0.00 | 0.00 | 78 | 1005.6 |
| 20260510042458 | 66 | 190 | 1.7 | 2.6 | 0.00 | 0.00 | 0.00 | 76 | 1005.7 |
| 20260510041958 | 67 | 182 | 1.7 | 2.6 | 0.00 | 0.00 | 0.00 | 76 | 1005.8 |
| 20260510041458 | 67 | 180 | 2.6 | 2.6 | 0.00 | 0.00 | 0.00 | 77 | 1005.7 |
| 20260510040959 | 67 | 192 | 2.6 | 3.5 | 0.00 | 0.00 | 0.00 | 77 | 1005.6 |
| 20260510040459 | 68 | 188 | 2.6 | 4.3 | 0.00 | 0.00 | 0.00 | 75 | 1005.6 |
| 20260510035958 | 68 | 206 | 3.5 | 4.3 | 0.00 | 0.00 | 0.00 | 74 | 1005.6 |
| 20260510035458 | 69 | 213 | 3.5 | 4.3 | 0.00 | 0.00 | 0.00 | 73 | 1005.6 |
| 20260510034958 | 69 | 213 | 2.6 | 3.5 | 0.00 | 0.00 | 0.00 | 73 | 1005.6 |
| 20260510034458 | 68 | 209 | 2.6 | 3.5 | 0.00 | 0.00 | 0.00 | 75 | 1005.5 |
| 20260510033958 | 69 | 198 | 2.6 | 3.5 | 0.00 | 0.00 | 0.00 | 76 | 1005.5 |
| 20260510033458 | 69 | 188 | 2.6 | 3.5 | 0.00 | 0.00 | 0.00 | 74 | 1005.5 |
| 20260510032959 | 69 | 202 | 3.5 | 3.5 | 0.00 | 0.00 | 0.00 | 72 | 1005.5 |
| 20260510032458 | 69 | 212 | 2.6 | 4.3 | 0.00 | 0.00 | 0.00 | 74 | 1005.5 |
| 20260510031958 | 70 | 208 | 2.6 | 4.3 | 0.00 | 0.00 | 0.00 | 74 | 1005.4 |
| 20260510031458 | 70 | 198 | 3.5 | 4.3 | 0.00 | 0.00 | 0.00 | 75 | 1005.4 |
| 20260510030959 | 70 | 204 | 3.5 | 4.3 | 0.00 | 0.00 | 0.00 | 74 | 1005.3 |
| 20260510030458 | 70 | 193 | 4.3 | 4.3 | 0.00 | 0.00 | 0.00 | 74 | 1005.3 |
| 20260510025958 | 70 | 190 | 3.5 | 5.2 | 0.00 | 0.00 | 0.00 | 74 | 1005.3 |
| 20260510025458 | 71 | 183 | 3.5 | 5.2 | 0.00 | 0.00 | 0.00 | 73 | 1005.2 |
| 20260510024958 | 71 | 202 | 3.5 | 7.0 | 0.00 | 0.00 | 0.00 | 72 | 1005.1 |
| 20260510024458 | 72 | 202 | 4.3 | 7.0 | 0.00 | 0.00 | 0.00 | 71 | 1005.1 |
| 20260510023958 | 71 | 199 | 4.3 | 7.0 | 0.00 | 0.00 | 0.00 | 70 | 1005.1 |
| 20260510023458 | 71 | 171 | 6.1 | 7.0 | 0.00 | 0.00 | 0.00 | 69 | 1004.8 |
| 20260510022958 | 71 | 166 | 5.2 | 6.1 | 0.00 | 0.00 | 0.00 | 68 | 1004.9 |
| 20260510022458 | 72 | 128 | 5.2 | 5.2 | 0.00 | 0.00 | 0.00 | 67 | 1004.9 |
| 20260510021958 | 73 | 143 | 3.5 | 3.5 | 0.00 | 0.00 | 0.00 | 67 | 1004.9 |
| 20260510021458 | 73 | 154 | 2.6 | 3.5 | 0.00 | 0.00 | 0.00 | 65 | 1004.8 |
| 20260510020958 | 73 | 170 | 1.7 | 2.6 | 0.00 | 0.00 | 0.00 | 65 | 1004.8 |
| 20260510020458 | 74 | 163 | 2.6 | 2.6 | 0.00 | 0.00 | 0.00 | 64 | 1004.7 |
| 20260510015958 | 73 | 166 | 2.6 | 2.6 | 0.00 | 0.00 | 0.00 | 63 | 1004.7 |
| 20260510015458 | 74 | 148 | 2.6 | 2.6 | 0.00 | 0.00 | 0.00 | 63 | 1004.6 |
| 20260510014958 | 74 | 151 | 2.6 | 2.6 | 0.00 | 0.00 | 0.00 | 63 | 1004.6 |
| 20260510014459 | 74 | 168 | 1.7 | 2.6 | 0.00 | 0.00 | 0.00 | 64 | 1004.6 |
| 20260510013958 | 73 | 179 | 1.7 | 3.5 | 0.00 | 0.00 | 0.00 | 63 | 1004.5 |
| 20260510013458 | 74 | 171 | 2.6 | 3.5 | 0.00 | 0.00 | 0.00 | 62 | 1004.5 |
| 20260510012959 | 75 | 170 | 2.6 | 3.5 | 0.00 | 0.00 | 0.00 | 61 | 1004.2 |
| 20260510012458 | 74 | 175 | 2.6 | 2.6 | 0.00 | 0.00 | 0.00 | 59 | 1004.5 |
| 20260510011958 | 75 | 161 | 2.6 | 2.6 | 0.00 | 0.00 | 0.00 | 59 | 1004.2 |
| 20260510011458 | 75 | 148 | 2.6 | 3.5 | 0.00 | 0.00 | 0.00 | 59 | 1004.2 |
| 20260510010958 | 74 | 166 | 2.6 | 4.3 | 0.00 | 0.00 | 0.00 | 59 | 1004.1 |
| 20260510010458 | 75 | 168 | 2.6 | 4.3 | 0.00 | 0.00 | 0.00 | 60 | 1004.0 |
| 20260510005958 | 76 | 173 | 3.5 | 5.2 | 0.00 | 0.00 | 0.00 | 59 | 1003.9 |
| 20260510005458 | 76 | 173 | 4.3 | 5.2 | 0.00 | 0.00 | 0.00 | 53 | 1003.8 |
| 20260510004958 | 76 | 146 | 2.6 | 3.5 | 0.00 | 0.00 | 0.00 | 50 | 1003.7 |
| 20260510004458 | 77 | 137 | 2.6 | 3.5 | 0.00 | 0.00 | 0.00 | 51 | 1003.8 |
| 20260510003958 | 77 | 128 | 2.6 | 2.6 | 0.00 | 0.00 | 0.00 | 52 | 1003.5 |
| 20260510003458 | 77 | 109 | 1.7 | 2.6 | 0.00 | 0.00 | 0.00 | 51 | 1003.4 |
| 20260510002958 | 76 | 104 | 2.6 | 3.5 | 0.00 | 0.00 | 0.00 | 50 | 1003.4 |
| 20260510002459 | 78 | 107 | 2.6 | 3.5 | 0.00 | 0.00 | 0.00 | 50 | 1003.3 |
| 20260510001958 | 78 | 105 | 2.6 | 3.5 | 0.00 | 0.00 | 0.00 | 52 | 1003.0 |
| 20260510001458 | 78 | 122 | 2.6 | 3.5 | 0.00 | 0.00 | 0.00 | 51 | 1003.3 |
| 20260510000958 | 78 | 119 | 1.7 | 3.5 | 0.00 | 0.00 | 0.00 | 50 | 1003.3 |
| 20260510000458 | 78 | 121 | 1.7 | 4.3 | 0.00 | 0.00 | 0.00 | 50 | 1003.2 |
| 20260509235958 | 79 | 121 | 1.7 | 4.3 | 0.00 | 0.00 | 0.00 | 50 | 1003.2 |
| 20260509235458 | 79 | 115 | 2.6 | 4.3 | 0.00 | 0.00 | 0.00 | 49 | 1003.2 |
| 20260509234958 | 79 | 113 | 3.5 | 4.3 | 0.00 | 0.00 | 0.00 | 47 | 1003.2 |
| 20260509234459 | 79 | 118 | 2.6 | 6.1 | 0.00 | 0.00 | 0.00 | 51 | 1003.2 |
| 20260509233958 | 78 | 132 | 3.5 | 6.1 | 0.00 | 0.00 | 0.00 | 47 | 1003.1 |
| 20260509233458 | 78 | 123 | 3.5 | 6.1 | 0.00 | 0.00 | 0.00 | 46 | 1003.0 |
| 20260509232958 | 78 | 129 | 3.5 | 6.1 | 0.00 | 0.00 | 0.00 | 49 | 1003.0 |
| 20260509232458 | 79 | 96 | 3.5 | 6.1 | 0.00 | 0.00 | 0.00 | 46 | 1003.0 |
| 20260509231958 | 79 | 99 | 3.5 | 7.0 | 0.00 | 0.00 | 0.00 | 46 | 1003.0 |
| 20260509231458 | 80 | 132 | 4.3 | 7.0 | 0.00 | 0.00 | 0.00 | 47 | 1002.9 |
| 20260509230958 | 79 | 135 | 2.6 | 7.0 | 0.00 | 0.00 | 0.00 | 47 | 1002.9 |
| 20260509230458 | 80 | 124 | 3.5 | 4.3 | 0.00 | 0.00 | 0.00 | 45 | 1002.8 |
| 20260509225958 | 80 | 51 | 3.5 | 4.3 | 0.00 | 0.00 | 0.00 | 45 | 1002.8 |
| 20260509225458 | 80 | 34 | 2.6 | 7.0 | 0.00 | 0.00 | 0.00 | 48 | 1002.8 |
| 20260509224958 | 79 | 46 | 3.5 | 7.0 | 0.00 | 0.00 | 0.00 | 44 | 1002.8 |
| 20260509224458 | 80 | 108 | 1.7 | 4.3 | 0.00 | 0.00 | 0.00 | 45 | 1002.8 |
| 20260509223958 | 79 | 93 | 3.5 | 4.3 | 0.00 | 0.00 | 0.00 | 46 | 1002.7 |
| 20260509223458 | 80 | 96 | 1.7 | 6.1 | 0.00 | 0.00 | 0.00 | 44 | 1002.7 |
| 20260509222958 | 80 | 354 | 2.6 | 6.1 | 0.00 | 0.00 | 0.00 | 44 | 1002.7 |
| 20260509222458 | 80 | 59 | 3.5 | 5.2 | 0.00 | 0.00 | 0.00 | 48 | 1002.6 |
| 20260509221958 | 81 | 58 | 4.3 | 5.2 | 0.00 | 0.00 | 0.00 | 45 | 1002.6 |
| 20260509221458 | 80 | 198 | 0.9 | 4.3 | 0.00 | 0.00 | 0.00 | 46 | 1002.5 |
| 20260509220958 | 80 | 236 | 3.5 | 4.3 | 0.00 | 0.00 | 0.00 | 45 | 1002.4 |
| 20260509220458 | 79 | 232 | 2.6 | 4.3 | 0.00 | 0.00 | 0.00 | 45 | 1002.5 |
| 20260509215958 | 80 | 255 | 3.5 | 4.3 | 0.00 | 0.00 | 0.00 | 45 | 1002.5 |
| 20260509215458 | 79 | 245 | 3.5 | 4.3 | 0.00 | 0.00 | 0.00 | 45 | 1002.5 |
| 20260509214958 | 81 | 231 | 2.6 | 4.3 | 0.00 | 0.00 | 0.00 | 43 | 1002.6 |
| 20260509214458 | 80 | 230 | 0.9 | 5.2 | 0.00 | 0.00 | 0.00 | 44 | 1002.6 |
| 20260509213958 | 80 | 197 | 2.6 | 5.2 | 0.00 | 0.00 | 0.00 | 47 | 1002.6 |
| 20260509213458 | 80 | 188 | 1.7 | 4.3 | 0.00 | 0.00 | 0.00 | 48 | 1002.6 |
| 20260509212958 | 79 | 167 | 3.5 | 4.3 | 0.00 | 0.00 | 0.00 | 48 | 1002.7 |
| 20260509212458 | 79 | 27 | 2.6 | 7.0 | 0.00 | 0.00 | 0.00 | 45 | 1002.7 |
| 20260509211958 | 79 | 51 | 4.3 | 7.0 | 0.00 | 0.00 | 0.00 | 47 | 1002.8 |
| 20260509211458 | 79 | 118 | 3.5 | 5.2 | 0.00 | 0.00 | 0.00 | 51 | 1002.8 |
| 20260509210958 | 79 | 131 | 3.5 | 6.1 | 0.00 | 0.00 | 0.00 | 46 | 1002.9 |
| 20260509210458 | 79 | 65 | 2.6 | 6.1 | 0.00 | 0.00 | 0.00 | 47 | 1003.2 |
| 20260509205958 | 79 | 144 | 3.5 | 6.1 | 0.00 | 0.00 | 0.00 | 46 | 1003.0 |
| 20260509205458 | 78 | 142 | 4.3 | 6.1 | 0.00 | 0.00 | 0.00 | 48 | 1003.1 |
| 20260509204958 | 80 | 179 | 1.7 | 5.2 | 0.00 | 0.00 | 0.00 | 47 | 1003.1 |
| 20260509204458 | 79 | 352 | 2.6 | 5.2 | 0.00 | 0.00 | 0.00 | 47 | 1003.2 |
| 20260509203958 | 78 | 109 | 5.2 | 6.1 | 0.00 | 0.00 | 0.00 | 50 | 1003.2 |
| 20260509203458 | 78 | 94 | 2.6 | 7.0 | 0.00 | 0.00 | 0.00 | 47 | 1003.3 |
| 20260509202958 | 78 | 92 | 1.7 | 7.0 | 0.00 | 0.00 | 0.00 | 49 | 1003.3 |
| 20260509202458 | 79 | 80 | 3.5 | 6.1 | 0.00 | 0.00 | 0.00 | 48 | 1003.3 |
| 20260509201958 | 79 | 280 | 0.9 | 9.6 | 0.00 | 0.00 | 0.00 | 48 | 1003.4 |
| 20260509201459 | 78 | 110 | 0.9 | 9.6 | 0.00 | 0.00 | 0.00 | 48 | 1003.5 |
| 20260509200958 | 79 | 96 | 6.1 | 6.1 | 0.00 | 0.00 | 0.00 | 49 | 1003.6 |
| 20260509200458 | 79 | 209 | 3.5 | 7.0 | 0.00 | 0.00 | 0.00 | 51 | 1003.4 |
| 20260509195958 | 79 | 151 | 3.5 | 7.0 | 0.00 | 0.00 | 0.00 | 50 | 1003.5 |
| 20260509195458 | 78 | 9 | 2.6 | 5.2 | 0.00 | 0.00 | 0.00 | 50 | 1003.5 |
| 20260509194958 | 77 | 175 | 1.7 | 7.8 | 0.00 | 0.00 | 0.00 | 52 | 1003.7 |
| 20260509194458 | 77 | 79 | 1.7 | 8.7 | 0.00 | 0.00 | 0.00 | 50 | 1003.7 |
| 20260509193958 | 78 | 100 | 7.8 | 8.7 | 0.00 | 0.00 | 0.00 | 55 | 1003.7 |
| 20260509193458 | 77 | 94 | 4.3 | 7.0 | 0.00 | 0.00 | 0.00 | 51 | 1003.8 |
| 20260509192958 | 78 | 107 | 5.2 | 6.1 | 0.00 | 0.00 | 0.00 | 52 | 1003.8 |
| 20260509192458 | 78 | 100 | 6.1 | 6.1 | 0.00 | 0.00 | 0.00 | 56 | 1003.9 |
| 20260509191958 | 77 | 48 | 0.0 | 5.2 | 0.00 | 0.00 | 0.00 | 55 | 1004.0 |
| 20260509191458 | 76 | 82 | 3.5 | 6.1 | 0.00 | 0.00 | 0.00 | 55 | 1004.0 |
| 20260509190958 | 76 | 106 | 1.7 | 7.8 | 0.00 | 0.00 | 0.00 | 57 | 1004.0 |
| 20260509190458 | 76 | 103 | 6.1 | 7.8 | 0.00 | 0.00 | 0.00 | 56 | 1004.0 |
| 20260509185958 | 79 | 69 | 4.3 | 4.3 | 0.00 | 0.00 | 0.00 | 52 | 1003.9 |
| 20260509185458 | 78 | 171 | 0.9 | 7.8 | 0.00 | 0.00 | 0.00 | 53 | 1004.0 |
| 20260509184958 | 77 | 48 | 1.7 | 7.8 | 0.00 | 0.00 | 0.00 | 54 | 1004.0 |
| 20260509184459 | 77 | 150 | 4.3 | 7.0 | 0.00 | 0.00 | 0.00 | 53 | 1004.1 |
| 20260509183958 | 77 | 113 | 6.1 | 7.0 | 0.00 | 0.00 | 0.00 | 55 | 1004.2 |
| 20260509183459 | 77 | 150 | 5.2 | 8.7 | 0.00 | 0.00 | 0.00 | 56 | 1004.2 |
| 20260509182958 | 77 | 107 | 5.2 | 8.7 | 0.00 | 0.00 | 0.00 | 54 | 1004.2 |
| 20260509182458 | 78 | 105 | 6.1 | 6.1 | 0.00 | 0.00 | 0.00 | 54 | 1004.1 |
| 20260509181958 | 76 | 198 | 1.7 | 6.1 | 0.00 | 0.00 | 0.00 | 50 | 1004.2 |
| 20260509181458 | 76 | 117 | 1.7 | 7.0 | 0.00 | 0.00 | 0.00 | 54 | 1004.2 |
| 20260509180958 | 76 | 105 | 4.3 | 7.0 | 0.00 | 0.00 | 0.00 | 55 | 1004.2 |
| 20260509180458 | 76 | 74 | 5.2 | 8.7 | 0.00 | 0.00 | 0.00 | 51 | 1004.2 |
| 20260509175958 | 76 | 109 | 5.2 | 8.7 | 0.00 | 0.00 | 0.00 | 53 | 1004.4 |
| 20260509175459 | 77 | 33 | 3.5 | 7.8 | 0.00 | 0.00 | 0.00 | 56 | 1004.2 |
| 20260509174959 | 76 | 61 | 0.0 | 7.8 | 0.00 | 0.00 | 0.00 | 54 | 1004.2 |
| 20260509174458 | 77 | 82 | 2.6 | 7.0 | 0.00 | 0.00 | 0.00 | 55 | 1004.3 |
| 20260509173958 | 76 | 102 | 1.7 | 7.8 | 0.00 | 0.00 | 0.00 | 55 | 1004.4 |
| 20260509173458 | 76 | 98 | 7.0 | 8.7 | 0.00 | 0.00 | 0.00 | 59 | 1004.4 |
| 20260509172958 | 76 | 124 | 2.6 | 8.7 | 0.00 | 0.00 | 0.00 | 58 | 1004.4 |
| 20260509172458 | 76 | 18 | 6.1 | 7.8 | 0.00 | 0.00 | 0.00 | 53 | 1004.4 |
| 20260509171958 | 76 | 13 | 5.2 | 7.8 | 0.00 | 0.00 | 0.00 | 53 | 1004.3 |
| 20260509171459 | 77 | 97 | 3.5 | 6.1 | 0.00 | 0.00 | 0.00 | 55 | 1004.4 |
| 20260509170959 | 76 | 315 | 2.6 | 6.1 | 0.00 | 0.00 | 0.00 | 57 | 1004.4 |
| 20260509170458 | 77 | 15 | 1.7 | 4.3 | 0.00 | 0.00 | 0.00 | 57 | 1004.4 |
| 20260509165958 | 76 | 172 | 1.7 | 5.2 | 0.00 | 0.00 | 0.00 | 57 | 1004.5 |
| 20260509165458 | 75 | 240 | 1.7 | 5.2 | 0.00 | 0.00 | 0.00 | 59 | 1004.6 |
| 20260509164958 | 76 | 113 | 2.6 | 5.2 | 0.00 | 0.00 | 0.00 | 55 | 1004.5 |
| 20260509164458 | 76 | 109 | 1.7 | 5.2 | 0.00 | 0.00 | 0.00 | 61 | 1004.6 |
| 20260509163958 | 75 | 31 | 1.7 | 3.5 | 0.00 | 0.00 | 0.00 | 55 | 1004.6 |
| 20260509163458 | 74 | 76 | 0.9 | 6.1 | 0.00 | 0.00 | 0.00 | 58 | 1004.6 |
| 20260509162958 | 74 | 107 | 0.9 | 6.1 | 0.00 | 0.00 | 0.00 | 57 | 1004.6 |
| 20260509162458 | 74 | 200 | 3.5 | 5.2 | 0.00 | 0.00 | 0.00 | 60 | 1004.6 |
| 20260509161958 | 73 | 131 | 3.5 | 5.2 | 0.00 | 0.00 | 0.00 | 58 | 1004.5 |
| 20260509161458 | 74 | 109 | 2.6 | 4.3 | 0.00 | 0.00 | 0.00 | 60 | 1004.5 |
| 20260509160958 | 73 | 23 | 2.6 | 5.2 | 0.00 | 0.00 | 0.00 | 61 | 1004.4 |
| 20260509160458 | 73 | 325 | 1.7 | 6.1 | 0.00 | 0.00 | 0.00 | 60 | 1004.4 |
| 20260509155958 | 72 | 22 | 2.6 | 7.0 | 0.00 | 0.00 | 0.00 | 63 | 1004.3 |
| 20260509155458 | 72 | 338 | 4.3 | 7.0 | 0.00 | 0.00 | 0.00 | 62 | 1004.3 |
| 20260509154958 | 72 | 5 | 4.3 | 7.8 | 0.00 | 0.00 | 0.00 | 61 | 1004.3 |
| 20260509154459 | 71 | 330 | 6.1 | 7.8 | 0.00 | 0.00 | 0.00 | 61 | 1004.2 |
| 20260509153959 | 72 | 0 | 1.7 | 8.7 | 0.00 | 0.00 | 0.00 | 63 | 1004.2 |
| 20260509153458 | 71 | 50 | 1.7 | 8.7 | 0.00 | 0.00 | 0.00 | 61 | 1004.2 |
| 20260509152959 | 71 | 343 | 8.7 | 8.7 | 0.00 | 0.00 | 0.00 | 64 | 1004.2 |
| 20260509152458 | 72 | 348 | 3.5 | 6.1 | 0.00 | 0.00 | 0.00 | 66 | 1004.2 |
| 20260509151958 | 71 | 13 | 3.5 | 5.2 | 0.00 | 0.00 | 0.00 | 63 | 1004.2 |
| 20260509151458 | 70 | 280 | 4.3 | 5.2 | 0.00 | 0.00 | 0.00 | 64 | 1004.2 |
| 20260509150958 | 70 | 248 | 4.3 | 6.1 | 0.00 | 0.00 | 0.00 | 66 | 1004.2 |
| 20260509150458 | 70 | 320 | 0.9 | 6.1 | 0.00 | 0.00 | 0.00 | 67 | 1004.2 |
| 20260509145959 | 70 | 270 | 5.2 | 5.2 | 0.00 | 0.00 | 0.00 | 70 | 1004.2 |
| 20260509145458 | 70 | 263 | 3.5 | 3.5 | 0.00 | 0.00 | 0.00 | 68 | 1004.2 |
| 20260509144958 | 69 | 263 | 2.6 | 3.5 | 0.00 | 0.00 | 0.00 | 64 | 1004.3 |
| 20260509144459 | 71 | 200 | 2.6 | 2.6 | 0.00 | 0.00 | 0.00 | 66 | 1004.3 |
| 20260509143958 | 71 | 79 | 1.7 | 2.6 | 0.00 | 0.00 | 0.00 | 64 | 1004.3 |
| 20260509143458 | 70 | 117 | 0.9 | 4.3 | 0.00 | 0.00 | 0.00 | 66 | 1004.3 |
| 20260509142958 | 70 | 196 | 1.7 | 4.3 | 0.00 | 0.00 | 0.00 | 68 | 1004.3 |
| 20260509142458 | 69 | 128 | 0.9 | 2.6 | 0.00 | 0.00 | 0.00 | 69 | 1004.1 |
| 20260509141958 | 68 | 195 | 0.9 | 2.6 | 0.00 | 0.00 | 0.00 | 68 | 1004.3 |
| 20260509141458 | 68 | 253 | 0.9 | 3.5 | 0.00 | 0.00 | 0.00 | 71 | 1004.3 |
| 20260509140958 | 67 | 227 | 2.6 | 4.3 | 0.00 | 0.00 | 0.00 | 72 | 1004.4 |
| 20260509140458 | 68 | 166 | 1.7 | 4.3 | 0.00 | 0.00 | 0.00 | 72 | 1004.4 |
| 20260509135958 | 67 | 159 | 1.7 | 3.5 | 0.00 | 0.00 | 0.00 | 73 | 1004.5 |
| 20260509135458 | 67 | 150 | 0.9 | 2.6 | 0.00 | 0.00 | 0.00 | 75 | 1004.5 |
| 20260509134959 | 66 | 220 | 2.6 | 3.5 | 0.00 | 0.00 | 0.00 | 75 | 1004.6 |
| 20260509134458 | 66 | 213 | 1.7 | 4.3 | 0.00 | 0.00 | 0.00 | 76 | 1004.5 |
| 20260509133958 | 65 | 177 | 1.7 | 4.3 | 0.00 | 0.00 | 0.00 | 78 | 1004.6 |
| 20260509133458 | 64 | 208 | 2.6 | 4.3 | 0.00 | 0.00 | 0.00 | 78 | 1004.3 |
| 20260509132958 | 64 | 198 | 2.6 | 4.3 | 0.00 | 0.00 | 0.00 | 79 | 1004.6 |
| 20260509132458 | 64 | 187 | 2.6 | 4.3 | 0.00 | 0.00 | 0.00 | 78 | 1004.5 |
| 20260509131958 | 64 | 188 | 3.5 | 4.3 | 0.00 | 0.00 | 0.00 | 79 | 1004.6 |
| 20260509131458 | 63 | 189 | 1.7 | 3.5 | 0.00 | 0.00 | 0.00 | 81 | 1004.6 |
| 20260509130958 | 63 | 188 | 1.7 | 3.5 | 0.00 | 0.00 | 0.00 | 82 | 1004.6 |
| 20260509130458 | 63 | 208 | 2.6 | 4.3 | 0.00 | 0.00 | 0.00 | 83 | 1004.5 |
| 20260509125958 | 63 | 222 | 2.6 | 4.3 | 0.00 | 0.00 | 0.00 | 83 | 1004.5 |
| 20260509125458 | 63 | 213 | 3.5 | 3.5 | 0.00 | 0.00 | 0.00 | 83 | 1004.5 |
| 20260509124959 | 62 | 203 | 2.6 | 2.6 | 0.00 | 0.00 | 0.00 | 82 | 1004.4 |
| 20260509124458 | 63 | 200 | 1.7 | 1.7 | 0.00 | 0.00 | 0.00 | 85 | 1004.4 |
| 20260509123959 | 62 | 252 | 0.9 | 1.7 | 0.00 | 0.00 | 0.00 | 88 | 1004.4 |
| 20260509123458 | 61 | 170 | 0.9 | 2.6 | 0.00 | 0.00 | 0.00 | 89 | 1004.4 |
| 20260509122958 | 60 | 175 | 0.9 | 4.3 | 0.00 | 0.00 | 0.00 | 89 | 1004.4 |
| 20260509122458 | 60 | 194 | 2.6 | 7.8 | 0.00 | 0.00 | 0.00 | 90 | 1004.1 |
| 20260509121958 | 59 | 210 | 4.3 | 7.8 | 0.00 | 0.00 | 0.00 | 90 | 1004.4 |
| 20260509121458 | 59 | 199 | 5.2 | 6.1 | 0.00 | 0.00 | 0.00 | 90 | 1004.4 |
| 20260509120958 | 59 | 205 | 4.3 | 5.2 | 0.00 | 0.00 | 0.00 | 90 | 1004.3 |
| 20260509120458 | 58 | 195 | 3.5 | 5.2 | 0.00 | 0.00 | 0.00 | 90 | 1004.3 |
| 20260509115959 | 57 | 182 | 3.5 | 5.2 | 0.00 | 0.00 | 0.00 | 90 | 1004.2 |
| 20260509115459 | 57 | 191 | 4.3 | 5.2 | 0.00 | 0.00 | 0.00 | 90 | 1004.2 |
| 20260509114958 | 57 | 193 | 4.3 | 7.0 | 0.00 | 0.00 | 0.00 | 90 | 1004.2 |
| 20260509114458 | 58 | 183 | 3.5 | 7.8 | 0.00 | 0.00 | 0.00 | 90 | 1004.2 |
| 20260509113958 | 57 | 191 | 6.1 | 7.8 | 0.00 | 0.00 | 0.00 | 90 | 1004.2 |
| 20260509113458 | 57 | 188 | 4.3 | 6.1 | 0.00 | 0.00 | 0.00 | 90 | 1004.1 |
| 20260509112958 | 57 | 183 | 3.5 | 7.8 | 0.00 | 0.00 | 0.00 | 90 | 1004.0 |
| 20260509112458 | 57 | 191 | 5.2 | 7.8 | 0.00 | 0.00 | 0.00 | 90 | 1004.0 |
| 20260509111958 | 58 | 192 | 6.1 | 6.1 | 0.00 | 0.00 | 0.00 | 89 | 1003.9 |
| 20260509111458 | 58 | 177 | 2.6 | 2.6 | 0.00 | 0.00 | 0.00 | 90 | 1003.7 |
| 20260509110958 | 58 | 140 | 1.7 | 2.6 | 0.00 | 0.00 | 0.00 | 90 | 1003.4 |
| 20260509110458 | 58 | 116 | 1.7 | 2.6 | 0.00 | 0.00 | 0.00 | 89 | 1003.3 |
| 20260509105958 | 58 | 135 | 1.7 | 2.6 | 0.00 | 0.00 | 0.00 | 89 | 1003.2 |
| 20260509105458 | 58 | 38 | 0.9 | 2.6 | 0.00 | 0.00 | 0.00 | 89 | 1003.0 |
| 20260509104958 | 58 | 15 | 1.7 | 1.7 | 0.00 | 0.00 | 0.00 | 89 | 1003.1 |